#timestamp,LO_Frequency,Hit,StdDev 
1607337115.2,286047008.5,P
1607337135.9,286047007.1,P
1607337155.7,286047006.9,P
1607337175.6,286047006.4,Y
1607337195.4,286047002.6,P
1607337215.2,286047004.2,N
1607337235.1,286047007.5,P
1607337236.0,286047007.5,Y
1607337255.8,286046999.8,P
1607337275.7,286047002.2,N
1607337295.5,286047003.9,N
1607337315.3,286047004.1,N
1607337335.2,286047002.2,N
1607337355.0,286047002.8,N
1607337355.9,286047002.8,N
1607337375.8,286046999.7,N
1607337395.6,286046999.7,N
1607337415.4,286046999.8,N
1607337435.3,286046998.8,N
1607337455.1,286046998.2,N
1607337475.9,286046999.1,N
1607337495.7,286046999.1,N
1607337515.5,286046996.7,N
1607337535.4,286046999.5,N
1607337555.2,286046999.6,N
1607337575.0,286046999.0,N
1607337575.9,286046999.0,N
1607337595.8,286047000.5,N
1607337615.6,286047003.9,N
1607337635.5,286047003.7,N
1607337655.3,286047005.9,N
1607337675.1,286047003.2,N
1607337695.9,286047001.6,N
1607337715.7,286047002.2,N
1607337735.5,286047001.4,N
1607337755.4,286047001.8,N
1607337775.2,286047000.2,N
1607337795.1,286046999.8,N
1607337796.0,286046999.8,N
1607337815.8,286047002.8,N
1607337835.6,286047000.8,N
1607337855.5,286047000.3,N
1607337875.3,286047000.1,N
1607337895.1,286047002.5,N
1607337915.9,286047004.3,N
1607337935.7,286047003.9,N
1607337955.6,286047005.8,N
1607337975.4,286047007.6,Y
1607337995.2,286047005.4,P
1607338015.1,286047005.5,N
1607338016.0,286047005.5,N
1607338035.8,286047006.0,Y
1607338055.6,286046999.5,P
1607338075.5,286046996.0,N
1607338095.3,286046994.2,N
1607338115.2,286046994.3,N
1607338135.9,286046994.5,N
1607338155.7,286046996.4,N
1607338175.6,286046993.3,N
1607338195.4,286046994.2,N
1607338215.2,286046993.9,N
1607338235.1,286046995.5,N
1607338236.0,286046995.5,N
1607338255.8,286046995.6,N
1607338275.7,286046995.2,N
1607338295.5,286046995.2,N
1607338315.3,286046999.5,N
1607338335.2,286046997.8,N
1607338355.0,286046994.9,N
1607338355.9,286046994.9,N
1607338375.7,286046997.6,N
1607338395.6,286046996.6,N
1607338415.4,286046997.1,N
1607338435.3,286046996.8,N
1607338455.1,286046998.7,N
1607338456.0,286046998.7,N
1607338475.8,286046998.8,N
1607338495.7,286046999.3,N
1607338515.5,286046997.0,N
1607338535.3,286046996.8,N
1607338555.2,286046999.2,N
1607338575.0,286046996.5,N
1607338575.9,286046996.5,N
1607338595.8,286046999.3,N
1607338615.6,286046998.9,N
1607338635.4,286047000.9,N
1607338655.3,286046998.1,N
1607338675.1,286047000.7,N
1607338695.8,286046999.3,N
1607338715.7,286046998.3,N
1607338735.5,286047000.7,N
1607338755.4,286047000.2,N
1607338775.2,286047000.7,N
1607338795.0,286046999.8,N
1607338795.9,286046999.8,N
